Wind_Speed
42 43 44 45 46 47 47 47 47 48 47 47 47 46 46 46 46 46 46 45 45 45 43 43 42 41 41 41 40 39 39 38 38 38 38 38 38 37 37 37 37 37 37
43 43 44 44 45 47 48 48 49 49 49 49 48 48 48 48 48 48 48 47 47 46 45 45 44 43 42 42 42 41 39 39 39 39 38 38 38 38 38 38 37 37 38
42 43 43 44 45 46 47 48 49 50 50 51 50 50 50 50 49 49 49 49 49 48 48 47 46 45 44 44 43 43 42 41 40 40 41 40 39 39 39 38 38 39 39
41 42 43 44 45 46 47 48 49 50 50 52 52 52 52 51 51 50 50 51 50 50 50 48 48 46 46 45 45 44 43 43 42 42 43 42 41 41 40 39 40 39 39
41 41 42 43 45 46 47 47 48 49 50 51 53 53 53 53 53 52 52 51 52 52 51 50 49 48 47 47 47 47 46 45 43 43 43 43 43 43 42 41 41 40 41
41 41 42 43 44 45 46 47 48 49 50 51 52 53 54 54 55 54 54 53 53 53 52 51 50 49 49 49 48 48 47 47 45 45 44 44 44 43 43 43 42 42 42
41 42 43 44 44 45 47 48 48 49 50 50 51 52 54 55 56 56 56 55 54 53 52 52 51 51 50 50 49 48 48 47 46 46 46 45 45 44 44 44 43 43 43
42 43 44 45 45 46 47 48 48 48 49 50 52 53 53 54 55 55 55 55 53 52 51 52 52 51 51 50 50 50 49 48 48 47 47 47 47 47 46 46 45 44 44
42 43 44 45 46 46 47 47 48 48 49 49 50 52 53 53 53 53 53 54 53 53 53 53 52 52 52 51 51 50 50 50 49 49 49 47 47 48 47 48 47 47 46
40 42 43 44 45 45 46 47 47 48 48 49 50 50 51 52 52 52 52 53 54 54 54 53 52 52 52 52 52 52 52 52 51 51 50 49 49 48 48 48 48 48 48
39 40 42 44 45 46 46 46 47 48 48 48 49 49 50 51 51 52 52 52 52 53 54 54 53 53 53 52 52 51 52 51 51 51 50 50 49 49 49 49 48 48 49
38 39 40 42 44 45 46 46 46 46 47 47 47 47 47 49 50 50 51 52 53 53 53 54 54 54 54 54 53 53 52 51 50 51 50 49 49 49 49 49 49 48 48
36 36 37 39 41 43 43 44 44 45 45 46 45 46 46 47 49 50 51 52 52 53 53 53 54 54 54 54 53 52 51 51 50 50 49 49 49 49 50 50 49 49 49
34 34 35 36 38 39 40 41 43 43 43 43 44 44 44 46 47 49 50 51 52 52 52 52 52 52 53 53 51 50 49 49 50 50 49 49 49 50 50 51 50 50 49
32 33 34 34 35 37 38 39 40 41 41 42 41 42 43 44 46 47 47 48 49 50 50 50 50 50 50 50 50 49 49 48 48 49 49 48 48 49 50 50 50 50 50
32 33 33 33 33 34 35 36 36 37 38 39 40 40 40 41 42 43 44 45 46 47 47 48 48 49 49 49 49 49 49 49 49 49 48 48 48 49 50 49 49 49 50
31 31 32 32 31 31 32 33 35 35 36 37 37 37 38 38 39 40 41 42 43 43 44 44 44 45 47 48 48 48 48 48 48 49 48 47 47 48 48 49 48 48 48
30 30 31 31 31 31 31 32 32 33 34 35 36 36 36 37 37 38 39 40 40 41 41 41 42 43 44 45 46 48 47 46 47 47 47 46 46 46 47 46 47 47 48
28 28 29 29 29 29 29 30 30 32 32 33 35 35 35 36 37 38 38 39 39 39 39 40 41 42 42 44 46 46 46 46 45 45 46 46 46 46 46 46 46 46 46
27 27 27 27 27 28 27 28 28 29 30 32 33 33 34 34 34 35 36 36 37 38 38 39 39 40 41 41 43 44 43 44 44 44 45 45 45 46 46 46 46 45 45
26 25 25 26 27 27 26 26 26 27 27 29 30 31 32 32 33 34 35 36 37 38 38 38 38 39 40 40 40 41 42 42 43 43 44 45 45 45 46 46 46 45 44
25 25 24 24 25 26 25 25 25 26 26 27 27 28 30 31 32 33 34 35 36 36 36 37 37 37 38 39 39 40 41 42 42 42 43 44 44 44 44 44 44 44 44
24 24 23 24 24 25 25 24 25 25 26 27 27 28 28 29 29 30 31 32 33 34 34 36 36 36 37 38 38 39 40 41 41 41 42 42 42 43 42 42 41 41 41
23 22 22 22 23 23 23 24 25 25 25 26 26 26 26 26 27 28 29 29 30 31 32 33 35 35 36 36 37 37 38 39 39 39 39 40 40 40 40 39 39 39 39
22 22 22 22 22 22 23 24 24 25 24 24 25 24 24 25 26 27 28 28 29 29 31 32 34 34 34 35 35 36 36 36 37 37 36 37 37 37 37 37 36 36 35
21 21 21 21 21 21 22 22 23 24 24 24 24 25 25 25 26 26 27 27 27 28 29 30 31 31 32 32 33 33 33 33 33 34 34 34 34 34 34 34 33 32 31
Wind_Direction
256 255 254 252 251 250 250 250 249 249 250 251 251 251 251 252 252 252 252 252 253 254 255 256 257 256 257 258 259 261 262 263 264 264 264 264 265 265 265 267 268 269 270
257 256 254 253 252 251 251 251 250 250 250 251 252 252 252 252 252 252 252 252 252 253 254 256 256 256 256 257 258 260 261 263 264 264 264 264 264 265 266 267 267 269 270
259 257 255 254 252 252 252 252 252 251 252 252 252 252 252 253 253 252 253 253 253 253 254 255 256 257 257 257 258 259 261 262 262 263 264 264 264 265 266 267 268 269 270
260 259 257 255 253 252 252 253 254 254 254 253 252 252 252 252 252 253 253 253 254 254 254 254 255 256 256 256 257 259 260 261 262 263 264 264 264 264 265 266 267 269 269
260 259 257 256 254 253 253 253 254 255 255 254 253 252 252 252 252 253 254 254 254 254 254 254 254 254 255 256 257 258 259 260 261 262 262 263 263 264 265 266 267 268 269
260 260 259 257 256 255 255 255 255 255 256 256 255 254 253 252 252 253 253 253 253 254 254 253 253 254 255 256 256 258 259 260 260 261 262 262 263 264 265 265 266 267 269
261 261 259 258 257 257 257 258 258 257 256 256 256 255 254 253 253 252 252 253 253 253 252 253 253 253 254 255 255 257 259 259 259 260 261 261 263 264 265 266 266 266 267
260 261 260 259 258 258 258 258 258 258 258 257 255 254 254 254 254 253 253 252 252 253 253 253 253 254 254 254 255 257 258 259 259 260 260 261 262 263 264 265 266 267 267
262 262 262 260 259 259 259 259 259 258 258 258 257 255 254 254 253 253 252 252 252 252 253 254 254 254 254 255 256 256 258 259 259 259 259 260 262 262 264 265 266 267 268
264 264 264 262 260 259 259 259 259 258 257 257 257 256 255 254 253 252 252 251 252 252 252 253 254 254 254 254 256 257 257 258 259 259 259 259 260 262 263 264 265 267 268
268 267 266 263 260 260 260 260 259 259 258 258 258 257 256 255 254 253 252 251 251 252 252 252 253 253 254 255 256 257 257 259 259 259 259 258 258 260 262 264 266 268 268
271 268 266 264 262 261 260 260 259 259 258 258 258 258 257 255 254 253 252 251 251 251 252 253 253 253 254 255 256 257 258 258 258 258 258 257 258 259 262 264 266 267 269
272 269 268 265 263 261 260 259 259 259 258 258 259 259 259 257 254 253 253 252 252 252 253 253 253 253 254 255 256 257 257 257 258 258 259 258 260 261 263 264 265 267 268
274 271 269 267 264 262 261 259 258 259 259 258 259 259 259 257 255 253 253 253 253 253 253 253 254 254 255 256 256 256 256 257 258 258 259 259 260 262 263 265 266 266 267
275 273 271 270 267 264 262 260 260 259 259 258 259 259 260 258 256 254 253 253 254 254 253 254 254 254 255 256 256 256 257 258 258 259 259 260 261 261 263 265 266 267 267
276 275 273 271 269 267 263 261 260 260 259 259 260 261 261 259 256 254 253 253 253 253 254 255 256 255 255 256 256 256 257 258 259 259 257 259 261 263 264 265 267 267 268
279 277 276 274 272 270 267 263 261 261 262 261 262 263 262 260 258 256 253 253 254 255 255 256 257 257 257 257 257 258 258 259 259 258 258 259 261 263 264 265 266 267 268
282 279 277 274 273 271 269 267 266 265 264 263 263 264 263 260 258 257 254 254 255 256 256 256 258 259 259 258 258 258 258 258 259 258 259 260 262 264 265 266 267 268 268
283 281 277 275 273 272 271 270 269 268 266 265 265 264 263 261 259 257 255 255 256 256 256 256 258 260 262 261 260 259 259 259 259 259 260 262 263 264 265 266 267 268 269
283 281 279 276 274 272 272 272 271 269 268 267 266 264 263 261 261 258 256 257 257 257 257 257 259 260 261 261 260 259 259 259 259 260 262 263 263 264 265 266 267 268 268
283 281 279 277 274 273 273 273 272 271 271 270 268 265 263 263 262 261 258 256 257 257 259 259 259 260 260 260 260 260 261 260 260 261 262 262 263 263 264 266 267 268 268
285 283 280 279 276 275 276 274 273 272 272 272 270 267 265 264 263 261 260 260 260 260 261 259 259 260 261 261 261 263 263 262 261 261 262 263 262 263 264 265 267 267 268
287 284 283 282 280 278 275 274 274 275 274 274 273 270 268 266 265 263 263 263 262 262 261 260 260 261 261 262 263 264 264 263 261 261 262 262 262 263 264 265 265 266 267
288 286 285 283 282 279 275 275 276 276 275 275 274 270 269 267 265 265 264 264 263 262 262 261 261 261 262 263 264 264 263 261 260 262 263 262 261 262 264 264 263 264 266
288 288 287 284 283 281 278 278 277 276 275 276 275 272 269 267 268 267 267 265 264 264 262 262 262 262 262 262 263 262 262 261 260 260 262 261 260 261 263 262 262 262 263
287 287 286 285 283 282 281 279 277 276 276 277 275 273 269 268 269 268 265 264 265 265 265 264 262 262 262 262 261 261 261 260 260 260 260 259 259 260 261 261 260 260 261
Height
5695 5696 5699 5701 5703 5706 5709 5711 5714 5717 5719 5721 5724 5726 5729 5731 5733 5735 5737 5739 5741 5743 5745 5747 5749 5751 5752 5754 5755 5757 5758 5759 5760 5761 5762 5764 5765 5766 5767 5768 5769 5770 5770
5684 5686 5688 5690 5692 5694 5697 5700 5702 5705 5707 5710 5712 5714 5717 5719 5722 5724 5726 5728 5730 5732 5734 5737 5739 5741 5742 5744 5745 5747 5748 5750 5751 5752 5752 5754 5757 5757 5758 5759 5760 5760 5761
5673 5675 5676 5678 5680 5683 5685 5688 5690 5692 5695 5697 5699 5702 5704 5707 5710 5712 5714 5717 5719 5721 5723 5726 5728 5730 5732 5734 5735 5737 5739 5740 5741 5742 5743 5744 5746 5748 5749 5750 5751 5751 5752
5663 5664 5666 5668 5670 5672 5674 5676 5678 5680 5682 5684 5687 5689 5692 5694 5697 5699 5702 5705 5707 5710 5712 5714 5717 5719 5721 5724 5725 5727 5728 5729 5731 5732 5733 5734 5736 5737 5740 5741 5741 5742 5742
5652 5653 5655 5656 5658 5660 5662 5664 5666 5668 5669 5671 5673 5676 5678 5681 5684 5686 5689 5692 5695 5697 5700 5703 5705 5708 5710 5712 5714 5716 5718 5719 5720 5721 5722 5723 5725 5727 5729 5731 5732 5732 5733
5642 5643 5644 5645 5647 5649 5650 5652 5654 5655 5657 5658 5660 5663 5665 5668 5671 5673 5676 5679 5682 5685 5688 5691 5693 5696 5698 5701 5703 5705 5706 5708 5709 5711 5712 5713 5715 5716 5718 5720 5721 5722 5723
5631 5632 5633 5634 5636 5637 5638 5640 5641 5642 5644 5645 5647 5649 5652 5654 5657 5660 5663 5666 5669 5672 5675 5678 5681 5684 5687 5689 5691 5693 5695 5696 5698 5699 5701 5702 5704 5706 5707 5708 5710 5711 5712
5620 5621 5622 5622 5624 5625 5626 5627 5628 5629 5630 5632 5633 5635 5637 5639 5643 5646 5649 5652 5656 5659 5662 5665 5669 5672 5674 5676 5679 5681 5683 5685 5686 5688 5689 5691 5693 5694 5695 5697 5698 5699 5701
5609 5609 5610 5610 5611 5612 5614 5614 5615 5616 5617 5618 5619 5621 5623 5626 5629 5632 5635 5639 5643 5646 5649 5652 5656 5659 5662 5664 5666 5669 5671 5673 5674 5676 5678 5679 5681 5682 5683 5685 5686 5688 5689
5597 5597 5598 5598 5599 5599 5600 5601 5602 5603 5604 5604 5606 5607 5610 5612 5615 5618 5621 5625 5630 5633 5636 5639 5643 5646 5649 5652 5654 5657 5659 5660 5661 5663 5665 5667 5669 5670 5671 5673 5674 5674 5676
5586 5586 5586 5586 5586 5587 5587 5588 5589 5590 5590 5592 5593 5595 5597 5599 5601 5605 5608 5612 5616 5620 5623 5627 5630 5633 5636 5639 5642 5643 5645 5647 5649 5650 5652 5654 5656 5658 5659 5660 5661 5662 5663
5575 5574 5574 5574 5574 5574 5575 5575 5576 5577 5578 5579 5580 5582 5583 5585 5588 5592 5595 5599 5603 5606 5610 5614 5617 5621 5623 5626 5629 5631 5633 5634 5636 5637 5639 5641 5643 5645 5647 5648 5649 5650 5651
5564 5563 5562 5562 5562 5562 5563 5563 5564 5565 5565 5567 5568 5570 5571 5572 5575 5579 5582 5585 5589 5593 5596 5600 5604 5607 5610 5612 5615 5617 5619 5621 5623 5625 5627 5629 5630 5632 5634 5635 5636 5637 5637
5553 5552 5552 5551 5551 5551 5551 5551 5552 5553 5554 5555 5556 5558 5559 5560 5562 5565 5569 5572 5576 5580 5583 5587 5590 5593 5596 5599 5602 5604 5606 5608 5610 5613 5614 5616 5618 5620 5621 5622 5623 5624 5624
5544 5543 5542 5541 5540 5540 5540 5540 5540 5541 5542 5544 5545 5546 5547 5548 5550 5553 5556 5559 5563 5567 5570 5574 5577 5580 5583 5586 5588 5591 5593 5595 5597 5600 5602 5604 5605 5607 5608 5609 5610 5611 5611
5535 5534 5533 5531 5530 5530 5529 5530 5530 5531 5531 5532 5534 5535 5535 5536 5538 5540 5544 5547 5550 5554 5558 5561 5564 5567 5570 5573 5575 5578 5580 5583 5585 5587 5589 5591 5593 5594 5595 5596 5597 5598 5598
5526 5525 5524 5523 5522 5521 5520 5520 5521 5521 5522 5522 5523 5524 5524 5526 5527 5529 5532 5536 5539 5542 5546 5549 5552 5554 5557 5559 5562 5565 5567 5570 5572 5574 5576 5579 5580 5581 5582 5583 5584 5585 5586
5518 5516 5515 5514 5513 5512 5512 5512 5512 5512 5512 5512 5513 5514 5514 5516 5517 5519 5522 5525 5528 5532 5535 5538 5541 5543 5545 5547 5549 5552 5554 5557 5560 5562 5564 5566 5568 5569 5570 5570 5572 5573 5573
5509 5508 5506 5506 5505 5504 5504 5504 5503 5503 5503 5503 5504 5504 5505 5506 5508 5510 5513 5516 5519 5522 5525 5528 5530 5532 5534 5535 5537 5539 5542 5545 5547 5549 5551 5553 5555 5556 5557 5558 5559 5561 5561
5502 5500 5499 5498 5498 5497 5496 5496 5496 5495 5495 5495 5495 5495 5496 5497 5499 5501 5503 5506 5509 5512 5515 5517 5519 5521 5523 5524 5525 5527 5530 5533 5536 5538 5539 5541 5542 5543 5544 5545 5547 5548 5549
5495 5494 5492 5491 5491 5490 5490 5489 5489 5488 5488 5487 5487 5488 5488 5489 5491 5492 5494 5497 5500 5502 5505 5507 5509 5510 5511 5513 5514 5516 5518 5520 5523 5525 5527 5528 5529 5531 5532 5533 5534 5535 5535
5490 5488 5486 5485 5484 5483 5483 5483 5482 5482 5482 5481 5481 5481 5481 5482 5483 5484 5486 5488 5490 5492 5494 5496 5498 5499 5500 5502 5503 5505 5506 5508 5510 5513 5515 5516 5517 5518 5519 5520 5521 5522 5522
5484 5482 5480 5479 5478 5477 5477 5476 5476 5476 5475 5475 5474 5474 5474 5474 5475 5476 5477 5479 5480 5482 5484 5486 5487 5489 5490 5491 5492 5493 5495 5496 5498 5500 5502 5503 5504 5506 5507 5508 5509 5509 5510
5478 5476 5475 5473 5472 5471 5470 5470 5469 5469 5469 5468 5467 5467 5467 5467 5468 5469 5470 5471 5471 5473 5474 5475 5477 5478 5479 5480 5481 5482 5483 5484 5486 5488 5489 5491 5492 5494 5495 5496 5497 5498 5499
5473 5471 5469 5468 5467 5466 5465 5464 5463 5463 5462 5462 5461 5460 5460 5461 5461 5462 5462 5463 5463 5464 5466 5466 5467 5468 5470 5470 5470 5471 5472 5473 5475 5476 5478 5479 5481 5483 5484 5485 5486 5488 5489
5467 5466 5464 5463 5461 5460 5459 5458 5457 5456 5456 5455 5455 5454 5454 5453 5453 5454 5454 5454 5455 5456 5456 5456 5457 5458 5459 5459 5460 5460 5461 5462 5464 5465 5467 5469 5471 5473 5474 5475 5477 5478 5480